Location: Benque
(43.2594°N, 0.9178°E)
Time: 06:16:55
(UTC+00:00)

H-2A R/B - Pass Details

Date: 24 January 2020
Orbit: 503 x 540 km, 97.3° (Epoch: 06 February)

Event Time Altitude Azimuth Distance (km) Brightness Sun altitude
Rises 17:42:58 0° 182° (S) 2,649 6.6 -8.6°
Reaches altitude 10° 17:45:08 10° 190° (S) 1,771 5.8 -9.0°
Maximum altitude 17:48:47 42° 262° (W) 772 4.2 -9.6°
Drops below altitude 10° 17:52:30 10° 334° (NNW) 1,802 5.6 -10.2°
Sets 17:54:43 0° 342° (NNW) 2,702 6.4 -10.6°
